weather.gov     
National Weather Service

Regional Weather Roundup
NWS Homepage
This page is being discontinued on March 12, 2014.
The same data is available at this site. Please update your bookmarks.
Thank you, and we apologize for the inconvenience.
Please send an email to SR-SRH.Webmaster@noaa.gov with any concerns.


Current Version
Previous Version:    01  02  03  04  05  06  07  08  09  10  11  12  13  14  15  16  17  18  19  20  21  22  23  24  25  26  27  28  29  30  
   31  32  33  34  35  36  37  38  39  40  41  42  43  44  45  46  47  48  49  50  51  52  53  54  55  56  57  58  59  60  
[Printable]
080
ASUS44 KMEG 180110
RWRMEG
MEMPHIS CWA HOURLY WEATHER ROUNDUP
NATIONAL WEATHER SERVICE MEMPHIS TN
800 PM CDT WED SEP 17 2014

...WEST TENNESSEE...

CITY           SKY/WX    TMP DP  RH WIND       PRES   REMARKS
MEMPHIS INTL   CLOUDY    72  63  73 SE3       29.91R
NWS MEMPHIS      N/A     68 N/A N/A MISG        N/A
JACKSON        MOCLDY    64  61  90 CALM      29.95R
LEXINGTON      CLEAR     64  61  88 CALM      29.94F
SAVANNAH       CLEAR     63  57  82 E6        29.94F
DYERSBURG      PTCLDY    63  52  67 E3        29.96S
UNION CITY     CLEAR     59  57  94 CALM      29.95R
PARIS          MOCLDY    61  57  88 CALM      29.97R
HUNTINGDON     MOCLDY    60  57  89 CALM      29.96R


...EASTERN ARKANSAS...

CITY           SKY/WX    TMP DP  RH WIND       PRES   REMARKS
JONESBORO      CLOUDY    63  63 100 NE7       29.92S
WEST MEMPHIS   CLOUDY    67  65  93 CALM      29.90S
BATESVILLE     CLOUDY    64  63  94 E3        29.90R
NEWPORT        CLOUDY    65  64  96 E6        29.90F
WALNUT RIDGE   MOCLDY    63  61  94 NE7       29.91F
BLYTHEVILLE    MOCLDY    64  62  93 CALM      29.95S
SEARCY         CLOUDY    67  65  93 NW3       29.90R
STUTTGART      MOCLDY    75  66  73 SE7       29.89F
PINE BLUFF     CLEAR     76  69  79 SE3       29.90F
MONTICELLO     CLEAR     77  71  82 CALM      29.91S


...NORTH MISSISSIPPI...

CITY           SKY/WX    TMP DP  RH WIND       PRES   REMARKS
TUPELO         PTCLDY    73  66  78 NE7       29.93F
OXFORD         PTCLDY    70  66  88 S5        29.94F
OLIVE BRANCH   CLOUDY    68  68 100 CALM      29.93R
CLARKSDALE     CLOUDY    73  70  88 CALM      29.92R
CORINTH          N/A     70  63  78 CALM      29.92F
GRENADA        MOCLDY    73  68  83 CALM      29.92S
GREENWOOD      MOCLDY    78  69  73 NE3       29.90F
COLUMBUS       CLEAR     74  67  77 E2        29.92F
STARKVILLE     FAIR      73  66  78 CALM      29.93S
GOLDEN TRIANGL CLEAR     77  64  65 NE5       29.94S


...SOUTHEAST MISSOURI...

CITY           SKY/WX    TMP DP  RH WIND       PRES   REMARKS
WEST PLAINS    PTCLDY    63  60  90 CALM      29.94R
POPLAR BLUFF   CLOUDY    63  58  83 CALM      29.94S
CAPE GIRARDEAU CLOUDY    64  60  87 SW3       29.95F


...NORTHWEST ALABAMA...

CITY           SKY/WX    TMP DP  RH WIND       PRES   REMARKS
MUSCLE SHOALS  PTCLDY    68  57  68 N3        29.97S


...MIDDLE TENNESSEE...

CITY           SKY/WX    TMP DP  RH WIND       PRES   REMARKS
NASHVILLE      CLOUDY    65  58  78 CALM      29.97R
CLARKSVILLE    CLOUDY    65  57  75 S5        29.98R
DICKSON        MOCLDY    63  57  82 CALM      29.97F
COLUMBIA       CLEAR     66  63  88 CALM      29.96F
LEWISBURG      MOCLDY    65  60  83 CALM      29.98R


...WESTERN KENTUCKY...

CITY           SKY/WX    TMP DP  RH WIND       PRES   REMARKS
PADUCAH        CLOUDY    69  59  70 CALM      29.95S
FORT CAMPBELL  CLOUDY    66  58  77 S5        29.97S


...CENTRAL ARKANSAS...

CITY           SKY/WX    TMP DP  RH WIND       PRES   REMARKS
LITTLE ROCK    MOCLDY    78  68  71 S8        29.87F


SKY/WX REPORTED AS FAIR MEANS FEW OR NO CLOUDS BELOW
12 THOUSAND FEET.





U.S. Dept. of Commerce
NOAA National Weather Service
1325 East West Highway
Silver Spring, MD 20910
E-mail: w-nws.webmaster@noaa.gov
Page last modified: May 16, 2007
NATIONAL WEATHER SERVICE: for Safety, for Work, for Fun - FOR LIFE